| time (UTC) | temp F | wind direction | speed MPH | gust MPH | rain 1hr in | rain 24hr in | rain mn in | humidity % | barometer mb |
| 20260906025805 | 87 | 121 | 8.0 | 18.0 | 0.00 | 0.00 | 0.00 | 64 | 1011.1 |
| 20260906024304 | 87 | 78 | 6.0 | 15.0 | 0.00 | 0.00 | 0.00 | 63 | 1010.6 |
| 20260906023304 | 88 | 80 | 6.0 | 12.0 | 0.00 | 0.00 | 0.00 | 62 | 1010.6 |
| 20260906022804 | 88 | 67 | 7.0 | 15.0 | 0.00 | 0.00 | 0.00 | 62 | 1010.7 |
| 20260906020804 | 88 | 122 | 7.0 | 12.0 | 0.00 | 0.00 | 0.00 | 61 | 1010.5 |
| 20260906015804 | 88 | 48 | 7.0 | 12.0 | 0.00 | 0.00 | 0.00 | 61 | 1010.2 |
| 20260906014805 | 89 | 128 | 7.0 | 12.0 | 0.00 | 0.00 | 0.00 | 60 | 1010.2 |
| 20260906013804 | 89 | 131 | 4.0 | 14.0 | 0.00 | 0.00 | 0.00 | 59 | 1010.2 |
| 20260906013304 | 90 | 11 | 10.0 | 18.0 | 0.00 | 0.00 | 0.00 | 58 | 1010.0 |
| 20260906012306 | 91 | 128 | 9.0 | 14.0 | 0.00 | 0.00 | 0.00 | 55 | 1009.6 |
| 20260906011804 | 92 | 57 | 9.0 | 14.0 | 0.00 | 0.00 | 0.00 | 54 | 1009.6 |
| 20260906010804 | 93 | 95 | 6.0 | 15.0 | 0.00 | 0.00 | 0.00 | 53 | 1009.5 |
| 20260906005306 | 94 | 17 | 8.0 | 13.0 | 0.00 | 0.00 | 0.00 | 50 | 1009.3 |
| 20260906004804 | 95 | 39 | 10.0 | 18.0 | 0.00 | 0.00 | 0.00 | 49 | 1009.1 |
| 20260906004305 | 95 | 136 | 4.0 | 8.0 | 0.00 | 0.00 | 0.00 | 47 | 1009.1 |
| 20260906002804 | 96 | 40 | 5.0 | 10.0 | 0.00 | 0.00 | 0.00 | 45 | 1009.1 |
| 20260906000808 | 96 | 140 | 7.0 | 10.0 | 0.00 | 0.00 | 0.00 | 44 | 1009.1 |
| 20260906000308 | 97 | 60 | 6.0 | 12.0 | 0.00 | 0.00 | 0.00 | 44 | 1009.0 |
| 20260905234808 | 97 | 94 | 6.0 | 12.0 | 0.00 | 0.00 | 0.00 | 44 | 1009.0 |
| 20260905234308 | 98 | 97 | 6.0 | 10.0 | 0.00 | 0.00 | 0.00 | 43 | 1009.0 |
| 20260905233808 | 98 | 71 | 5.0 | 12.0 | 0.00 | 0.00 | 0.00 | 43 | 1008.9 |
| 20260905233308 | 98 | 138 | 6.0 | 12.0 | 0.00 | 0.00 | 0.00 | 43 | 1009.0 |
| 20260905232808 | 98 | 133 | 5.0 | 9.0 | 0.00 | 0.00 | 0.00 | 43 | 1009.1 |
| 20260905232308 | 98 | 82 | 5.0 | 9.0 | 0.00 | 0.00 | 0.00 | 42 | 1009.1 |
| 20260905231807 | 98 | 96 | 5.0 | 10.0 | 0.00 | 0.00 | 0.00 | 42 | 1009.0 |
| 20260905231308 | 99 | 119 | 3.0 | 8.0 | 0.00 | 0.00 | 0.00 | 42 | 1009.0 |
| 20260905230308 | 99 | 124 | 6.0 | 9.0 | 0.00 | 0.00 | 0.00 | 41 | 1009.0 |
| 20260905225308 | 99 | 118 | 7.0 | 12.0 | 0.00 | 0.00 | 0.00 | 41 | 1009.0 |
| 20260905223308 | 99 | 108 | 2.0 | 8.0 | 0.00 | 0.00 | 0.00 | 41 | 1009.0 |
| 20260905222808 | 100 | 161 | 5.0 | 12.0 | 0.00 | 0.00 | 0.00 | 40 | 1009.0 |
| 20260905221307 | 100 | 127 | 4.0 | 9.0 | 0.00 | 0.00 | 0.00 | 40 | 1009.0 |
| 20260905215308 | 100 | 187 | 3.0 | 5.0 | 0.00 | 0.00 | 0.00 | 40 | 1009.3 |
| 20260905213307 | 99 | 243 | 1.0 | 8.0 | 0.00 | 0.00 | 0.00 | 39 | 1009.6 |
| 20260905212307 | 99 | 171 | 2.0 | 8.0 | 0.00 | 0.00 | 0.00 | 40 | 1009.6 |
| 20260905210807 | 99 | 153 | 4.0 | 9.0 | 0.00 | 0.00 | 0.00 | 40 | 1009.9 |
| 20260905210307 | 99 | 176 | 3.0 | 7.0 | 0.00 | 0.00 | 0.00 | 41 | 1009.9 |
| 20260905205308 | 99 | 127 | 3.0 | 6.0 | 0.00 | 0.00 | 0.00 | 40 | 1008.2 |
| 20260905203807 | 98 | 147 | 5.0 | 9.0 | 0.00 | 0.00 | 0.00 | 42 | 1008.5 |
| 20260905040306 | 88 | 179 | 5.0 | 7.0 | 0.00 | 0.00 | 0.00 | 59 | 1011.6 |
| 20260905035807 | 88 | 160 | 5.0 | 8.0 | 0.00 | 0.00 | 0.00 | 58 | 1011.6 |
| 20260905033805 | 89 | 132 | 4.0 | 9.0 | 0.00 | 0.00 | 0.00 | 57 | 1011.5 |
| 20260905032805 | 89 | 141 | 5.0 | 8.0 | 0.00 | 0.00 | 0.00 | 56 | 1011.5 |
| 20260905031804 | 89 | 145 | 3.0 | 9.0 | 0.00 | 0.00 | 0.00 | 56 | 1011.5 |
| 20260905030305 | 90 | 151 | 5.0 | 9.0 | 0.00 | 0.00 | 0.00 | 56 | 1011.3 |